Pitkin, LA

8:59 PM CST on February 24, 2017 (GMT -0600)
Fort Polk

Weather History for KBKB - May, 2014

Change the Weather History Date:

Thursday, May 1, 2014

  Actual Average (KPOE) Record (KPOE)
Temperature  
Mean Temperature 59 °F -  
Max Temperature 73 °F 79 °F 87 °F (2002)
Min Temperature 45 °F 60 °F 46 °F (2014)
Degree Days  
Heating Degree Days 6    
Growing Degree Days 9 (Base 50)    
Moisture  
Dew Point 42 °F    
Average Humidity 57    
Maximum Humidity 89    
Minimum Humidity 22    
Precipitation  
Precipitation 0.00 in - - ()
Sea Level Pressure  
Sea Level Pressure 30.15 in    
Wind  
Wind Speed 1 mph (North)    
Max Wind Speed 7 mph    
Max Gust Speed -    
Visibility 10 miles    
Events      
Averages and records for this station are not official NWS values.
T = Trace of Precipitation, MM = Missing Value Source: NWS Daily Summary

Daily Weather History Graph

Daily Weather History Graph

Search for Another Location

Airport or City:

Trip Planner

Search our weather history database for the weather conditions in past years. The results will help you decide how hot, cold, wet, or windy it might be!

Date:

Astronomy

May. 01, 2014 Rise Set
Actual Time 6:27 AM CDT 7:50 PM CDT
Civil Twilight 6:01 AM CDT 8:16 PM CDT
Nautical Twilight 5:30 AM CDT 8:47 PM CDT
Astronomical Twilight 4:59 AM CDT 9:19 PM CDT
Moon 8:18 AM CDT (5/1) 10:20 PM CDT (5/1)
Length of Visible Light 14h 14m
Length of Day
13h 23m
Waxing Crescent, 7% of the Moon is Illuminated
May 1
Waxing Crescent
May 6
First Quarter
May 14
Full
May 21
Last Quarter
May 28
New

Hourly Weather History & Observations

Time (CDT) Temp. Dew Point Humidity Pressure Visibility Wind Dir Wind Speed Gust Speed Precip Events Conditions
12:54 AM 48.9 °F 44.1 °F 83% 30.20 in 10.0 mi Calm Calm - N/A   Clear
1:54 AM 46.9 °F 43.0 °F 86% 30.20 in 10.0 mi Calm Calm - N/A   Clear
2:54 AM 46.0 °F 43.0 °F 89% 30.19 in 10.0 mi Calm Calm - N/A   Clear
3:54 AM 46.0 °F 42.1 °F 86% 30.19 in 10.0 mi Calm Calm - N/A   Clear
4:54 AM 45.0 °F 41.0 °F 86% 30.19 in 10.0 mi Calm Calm - N/A   Clear
5:54 AM 45.0 °F 41.0 °F 86% 30.19 in 10.0 mi Calm Calm - N/A   Clear
6:54 AM 45.0 °F 41.0 °F 86% 30.20 in 10.0 mi Calm Calm - N/A   Clear
7:54 AM 51.1 °F 46.0 °F 83% 30.21 in 10.0 mi Calm Calm - N/A   Clear
8:54 AM 63.0 °F 43.0 °F 48% 30.21 in 10.0 mi Calm Calm - N/A   Clear
9:54 AM 66.0 °F 35.1 °F 32% 30.21 in 10.0 mi Calm Calm - N/A   Clear
10:54 AM 68.0 °F 34.0 °F 28% 30.21 in 10.0 mi Variable 6.9 mph - N/A   Clear
11:54 AM 71.1 °F 33.1 °F 25% 30.19 in 10.0 mi Variable 5.8 mph - N/A   Clear
12:54 PM 72.0 °F 35.1 °F 26% 30.16 in 10.0 mi Variable 4.6 mph - N/A   Clear
1:54 PM 72.0 °F 30.9 °F 22% 30.13 in 10.0 mi Variable 6.9 mph - N/A   Clear
2:54 PM 73.0 °F 34.0 °F 24% 30.11 in 10.0 mi Variable 3.5 mph - N/A   Clear
3:54 PM 73.0 °F 36.0 °F 26% 30.09 in 10.0 mi Variable 4.6 mph - N/A   Clear
4:54 PM 71.1 °F 39.0 °F 31% 30.09 in 10.0 mi Calm Calm - N/A   Clear
5:54 PM 71.1 °F 42.1 °F 35% 30.10 in 10.0 mi Calm Calm - N/A   Clear
6:54 PM 68.0 °F 48.0 °F 49% 30.08 in 10.0 mi Calm Calm - N/A   Clear
7:54 PM 63.0 °F 48.9 °F 60% 30.09 in 10.0 mi Calm Calm - N/A   Clear
8:54 PM 60.1 °F 50.0 °F 69% 30.11 in 10.0 mi Calm Calm - N/A   Clear
9:54 PM 60.1 °F 48.9 °F 67% 30.11 in 10.0 mi Calm Calm - N/A   Clear
10:54 PM 59.0 °F 48.9 °F 69% 30.11 in 10.0 mi Calm Calm - N/A   Clear
11:54 PM 57.0 °F 48.9 °F 74% 30.12 in 10.0 mi Calm Calm - N/A   Clear